Location: Hemaruka
(51.7801°N, 111.0917°W)
Time: 12:45:23
(UTC+00:00)

MOZHAYETS 4 - Pass Details

Date: 12 December 2023
Orbit: 654 x 672 km, 98.3° (Epoch: 28 February)

Event Time Altitude Azimuth Distance (km) Brightness Sun altitude
Rises 00:25:37 0° 9° (N) 3,039 10.8 -10.3°
Reaches altitude 10° 00:27:59 10° 0° (N) 2,121 10.1 -10.7°
Maximum altitude 00:32:11 35° 296° (WNW) 1,082 9.2 -11.2°
Drops below altitude 10° 00:36:22 10° 230° (SW) 2,105 11.6 -11.8°
Sets 00:38:43 0° 222° (SW) 3,014 12.3 -12.2°
